FW9031 Weather Reports


time (UTC)temp
C
wind
direction
speed
KPH
gust
KPH
rain 1hr
cm
rain 24hr
cm
rain mn
cm
humidity
%
barometer
mb
20260507094557 7 0 0.0 0.0 0.00 1.80 0.41 94 1006.1
20260507093052 7 0 0.0 0.0 0.00 1.80 0.41 95 1006.5
20260507091600 7 0 0.0 0.0 0.00 1.80 0.41 95 1006.5
20260507090051 7 0 0.0 0.0 0.00 1.80 0.41 95 1006.6
20260507084600 7 0 0.0 0.0 0.00 1.80 0.41 95 1006.6
20260507083056 8 0 0.0 0.0 0.00 1.80 0.41 95 1006.2
20260507081555 8 0 0.0 0.0 0.00 1.80 0.41 95 1006.2
20260507080051 8 0 0.0 1.6 0.00 1.80 0.41 95 1006.0
20260507074606 8 0 0.0 0.0 0.00 1.80 0.41 96 1006.2
20260507073054 8 0 0.0 0.0 0.00 1.80 0.41 95 1006.3
20260507071554 8 0 0.0 0.0 0.00 1.80 0.41 95 1005.9
20260507070109 8 0 0.0 1.6 0.00 1.80 0.41 95 1005.8
20260507064602 9 0 0.0 1.6 0.00 1.80 0.41 95 1005.6
20260507063058 9 178 0.0 4.8 0.00 1.80 0.41 95 1005.5
20260507061553 9 0 0.0 1.6 0.00 1.80 0.41 96 1005.3
20260507060055 10 0 0.0 0.0 0.03 1.80 0.41 96 1005.1
20260507054554 10 0 0.0 0.0 0.15 1.80 0.41 96 1005.1
20260507053056 10 178 0.0 1.6 0.36 1.80 0.41 96 1005.3
20260507051557 10 0 0.0 0.0 0.38 1.80 0.41 96 1005.4
20260507050056 10 0 0.0 0.0 0.38 1.78 0.38 96 1005.3
20260507044559 10 0 0.0 3.2 0.25 1.65 0.25 96 1005.6
20260507043049 11 0 0.0 0.0 0.08 1.45 0.05 96 1005.1
20260507041553 11 0 0.0 1.6 0.08 1.42 0.03 96 1004.8
20260507034557 11 178 0.0 3.2 0.08 1.40 1.40 96 1004.8
20260507033102 11 0 0.0 1.6 0.05 1.37 1.37 96 1004.7
20260507031604 11 0 0.0 0.0 0.03 1.32 1.32 96 1004.7
20260507030053 11 0 0.0 9.7 0.05 1.32 1.32 96 1004.5
20260507024556 11 178 1.6 9.7 0.08 1.32 1.32 96 1004.6
20260507023055 11 0 1.6 11.3 0.13 1.32 1.32 96 1004.3
20260507021553 11 0 1.6 9.7 0.15 1.32 1.32 96 1004.3
20260507020059 11 178 1.6 9.7 0.15 1.30 1.30 96 1004.5
20260507014602 11 178 1.6 16.1 0.10 1.24 1.24 96 1004.8
20260507013111 12 178 3.2 14.5 0.05 1.19 1.19 96 1004.8
20260507011603 12 178 1.6 16.1 0.03 1.17 1.17 96 1005.1
20260507004554 12 178 4.8 22.5 0.00 1.14 1.14 96 1005.2
20260507003052 12 178 3.2 16.1 0.00 1.14 1.14 96 1005.4
20260507001558 12 178 6.4 24.1 0.00 1.14 1.14 96 1005.2
20260507000055 12 178 3.2 17.7 0.00 1.14 1.14 96 1005.2
20260506234554 12 178 3.2 17.7 0.00 1.14 1.14 95 1005.5
20260506233104 12 178 4.8 22.5 0.00 1.14 1.14 95 1005.4
20260506231600 12 178 3.2 27.4 0.03 1.14 1.14 95 1005.6
20260506230104 12 178 3.2 16.1 0.05 1.14 1.14 95 1005.8
20260506224553 12 0 8.0 27.4 0.05 1.14 1.14 95 1005.9
20260506223053 12 178 1.6 14.5 0.08 1.14 1.14 95 1006.0
20260506221558 12 178 1.6 12.9 0.08 1.12 1.12 95 1006.4
20260506220056 12 178 1.6 16.1 0.10 1.09 1.09 95 1006.4
20260506214552 12 178 1.6 25.7 0.15 1.09 1.09 95 1006.5
20260506213052 12 178 4.8 16.1 0.18 1.07 1.07 95 1006.6
20260506211608 12 178 6.4 16.1 0.23 1.04 1.04 94 1006.6
20260506210052 12 178 1.6 17.7 0.20 0.99 0.99 94 1006.9
20260506204551 12 178 6.4 16.1 0.25 0.94 0.94 94 1006.9
20260506203052 12 178 3.2 19.3 0.38 0.89 0.89 94 1006.9
20260506201553 12 178 3.2 19.3 0.43 0.81 0.81 94 1007.0
20260506200055 12 178 4.8 16.1 0.58 0.79 0.79 94 1007.1
20260506194556 12 178 1.6 9.7 0.61 0.69 0.69 94 1007.4
20260506193054 12 178 0.0 11.3 0.48 0.51 0.51 93 1008.0
20260506191553 12 178 6.4 14.5 0.38 0.38 0.38 92 1007.3
20260506190057 12 0 6.4 25.7 0.20 0.20 0.20 91 1007.4
20260506184553 13 178 6.4 17.7 0.08 0.08 0.08 88 1007.3
20260506183048 14 178 6.4 19.3 0.03 0.03 0.03 85 1007.5
20260506181559 15 178 4.8 14.5 0.00 0.00 0.00 81 1007.2
20260506180055 15 178 4.8 17.7 0.00 0.00 0.00 81 1007.5
20260506174552 15 178 4.8 14.5 0.00 0.00 0.00 81 1007.7
20260506173108 15 178 4.8 22.5 0.00 0.00 0.00 80 1008.0
20260506171558 16 178 3.2 22.5 0.00 0.00 0.00 80 1008.2
20260506170105 16 178 3.2 14.5 0.00 0.00 0.00 80 1008.6
20260506164613 16 178 4.8 14.5 0.00 0.00 0.00 80 1008.9
20260506163102 16 178 4.8 17.7 0.00 0.00 0.00 80 1009.1
20260506161553 16 178 4.8 16.1 0.00 0.00 0.00 80 1009.4
20260506160106 16 178 3.2 9.7 0.00 0.00 0.00 81 1009.4
20260506154555 15 178 8.0 16.1 0.00 0.00 0.00 81 1009.7
20260506153055 15 178 6.4 22.5 0.00 0.00 0.00 80 1009.6
20260506151553 16 178 1.6 14.5 0.00 0.00 0.00 80 1009.5
20260506150054 16 178 3.2 12.9 0.00 0.00 0.00 80 1009.3
20260506144553 16 178 3.2 14.5 0.00 0.00 0.00 80 1009.1
20260506143055 16 178 4.8 14.5 0.00 0.00 0.00 80 1009.4
20260506141606 15 178 3.2 12.9 0.00 0.00 0.00 80 1009.7
20260506140055 15 178 3.2 9.7 0.00 0.00 0.00 81 1009.8
20260506134553 15 178 3.2 8.0 0.00 0.00 0.00 81 1009.7
20260506133059 14 178 1.6 8.0 0.00 0.00 0.00 82 1009.6
20260506131555 14 178 3.2 11.3 0.00 0.00 0.00 82 1009.6
20260506130054 14 178 1.6 8.0 0.00 0.00 0.00 82 1009.7
20260506124553 13 178 0.0 8.0 0.00 0.00 0.00 83 1009.7
20260506123055 13 178 0.0 9.7 0.00 0.00 0.00 84 1009.8
20260506121602 12 178 1.6 9.7 0.00 0.00 0.00 85 1010.1
20260506120118 12 178 4.8 12.9 0.00 0.00 0.00 85 1010.0
20260506114551 12 178 3.2 9.7 0.00 0.00 0.00 85 1010.7
20260506113051 12 178 1.6 11.3 0.00 0.00 0.00 85 1010.5
20260506111550 12 178 0.0 4.8 0.00 0.00 0.00 85 1010.3
20260506110056 11 178 0.0 4.8 0.00 0.00 0.00 86 1010.2
20260506104552 11 178 0.0 3.2 0.00 0.00 0.00 86 1010.2
20260506103054 11 0 0.0 1.6 0.00 0.00 0.00 87 1010.3
20260506101553 11 0 0.0 0.0 0.00 0.00 0.00 87 1010.2
20260506100057 11 0 0.0 3.2 0.00 0.00 0.00 87 1010.6